METEOSAT-11 (MSG-4)

Last updated on Wed Sep 17 2025 00:02:22 GMT+0000 (Coordinated Universal Time)

1 40732U 15034A 25259.58555203 .00000044 00000+0 00000+0 0 9991 2 40732 2.5126 72.2198 0000541 123.4454 20.1435 1.00273769 4471
UTC large
Height (km)
Speed (km/s)
/
Latitude / Longitude
Inclination (degrees)
Orbital Period (minutes)
Azimuth
Elevation
Range (km)
Doppler Factor

Next 0 passes for location: London (51.5072 / 0.1276)

Sorry there are no passes over London.